METAR LOCAUX

2020/08/05 11:30 LFST 051130Z AUTO 03004KT 320V090 CAVOK 25/11 Q1018 NOSIG
2020/08/05 11:20 EDSB 051120Z 36009KT 320V020 CAVOK 26/11 Q1017
2020/08/05 11:30 LFGA 051130Z AUTO VRB04KT CAVOK 25/10 Q1017
www.noaa.gov

Ne pas utiliser pour préparer ou effectuer un vol: Utilisez la documentation officielle disponible sur aviation.meteo.fr (Aéroweb)


"Le soleil du matin ne dure pas forcément toute la journée."

Animation satellite IR

Meteociel.fr

"Derrière chaque nuage se cache le ciel bleu."

Radar pluie

Infoclimat.fr

"Si tu veux l’arc-en-ciel, tu dois supporter la pluie."
Dolly Parton

Nébulosité (octas)

Meteociel.fr

"Le soleil est souvent obscurci par les nuages et la raison par les passions."
Démophile

Impacts de foudre

www.meteo60.fr

"Celui que frappe la foudre n'entend pas le tonnerre."

Vigilance météo

vigilance-meteo.fr

"Tout nuage n'enfante pas une tempête."
William Shakespeare

TAF locaux

2020/08/05 12:21 TAF LFST 051100Z 0512/0612 03006KT CAVOK
2020/08/05 12:27 TAF EDSB 051100Z 0512/0612 01008KT CAVOK BECMG 0517/0519 VRB03KT BECMG 0606/0608 02008KT
www.noaa.gov

Ne pas utiliser pour préparer ou effectuer un vol: Utilisez la documentation officielle disponible sur aviation.meteo.fr (Aéroweb)


"Les jours où le ciel est gris, le soleil n'a pas disparu à tout jamais."
Arnaud Desjardins

Prévisions 7 jours


Meteoblue.com

"Quand les crapauds chantent, le beau temps s'avance !"